#datint,netname,site,siteID,timestamp,IntT,BattV,AirT2,AirT,AirT_Avg,AirT_Max,AirT_Min,RH_Avg,RH_Max,RH_Min,EA_Avg,Td_Avg,Td_Max,Td_Min,WindS_Smp,WindS_Avg,WindD_Avg,WindD_SD,WindS_Max,ETo,ETr,SoilT4,SoilT8,SoilVWC8,SolarW_Avg,wetstate_Avg,wetT_Avg,Precip_accum,Precip_WPG,Precip_TB
15min,AgWx,beryljct,423,12OCT2018:00:00:00,42.1,12.97,41.0,40.4,40.7,41.0,40.3,92,92,91,0.780,38.4,38.7,38.1,3.244,3.1,50,7.0,4.5,-0.00014,-0.00017,53.3,55.2,23,0,100,39.6,7.73,0.00,0.00
15min,AgWx,beryljct,423,12OCT2018:00:15:00,41.5,12.97,40.4,40.2,40.1,40.4,39.9,92,93,92,0.779,38.0,38.2,37.8,3.376,2.1,83,44,3.8,-0.00017,-0.00022,53.1,55.2,23,0,100,38.6,7.73,0.00,0.00
15min,AgWx,beryljct,423,12OCT2018:00:30:00,40.9,12.94,39.1,38.1,39.0,40.3,38.0,92,93,90,0.723,36.8,38.1,35.6,0.614,1.3,135,2.0,3.3,-0.00020,-0.00027,53.0,55.1,23,0,100,37.4,7.73,0.00,0.00
15min,AgWx,beryljct,423,12OCT2018:00:45:00,40.3,12.95,39.4,40.3,38.7,40.3,37.9,94,94,93,0.793,37.1,38.6,36.0,4.253,1.1,127,34,4.3,-0.00021,-0.00029,52.8,55.1,23,0,100,37.6,7.73,0.00,0.00
15min,AgWx,beryljct,423,12OCT2018:01:00:00,40.6,12.94,40.5,39.9,40.1,40.6,39.6,92,93,90,0.764,37.8,38.6,37.1,2.894,2.7,3.8,27,4.1,-0.00015,-0.00018,52.6,55.0,23,0,73,40.2,7.73,0.00,0.00
15min,AgWx,beryljct,423,12OCT2018:01:15:00,41.0,12.93,40.7,40.4,40.2,40.5,39.8,92,92,91,0.781,38.0,38.3,37.6,2.433,2.5,22,7.6,3.4,-0.00015,-0.00019,52.4,55.0,23,0,0,40.3,7.73,0.00,0.00
15min,AgWx,beryljct,423,12OCT2018:01:30:00,41.2,12.91,41.1,40.7,40.7,40.9,40.4,92,92,91,0.787,38.4,38.7,38.2,2.258,2.7,24,9.1,3.7,-0.00015,-0.00018,52.2,54.9,23,0,3,40.3,7.72,0.00,0.00
15min,AgWx,beryljct,423,12OCT2018:01:45:00,41.4,12.91,40.8,40.5,40.5,40.8,40.2,92,92,91,0.786,38.2,38.5,38.0,2.806,2.7,22,8.4,3.8,-0.00015,-0.00018,52.0,54.8,23,0,40,40.3,7.72,0.00,0.00
15min,AgWx,beryljct,423,12OCT2018:02:00:00,41.6,12.9,40.8,40.5,40.4,40.5,40.3,92,93,92,0.794,38.3,38.6,38.2,3.749,2.7,32,12,3.7,-0.00015,-0.00019,51.9,54.8,23,0,0,40.7,7.72,0.00,0.00
15min,AgWx,beryljct,423,12OCT2018:02:15:00,41.7,12.91,41.0,40.7,40.6,40.8,40.5,93,93,92,0.796,38.7,38.8,38.5,2.806,2.9,48,8.0,4.2,-0.00014,-0.00018,51.8,54.7,23,0,0,40.8,7.73,0.00,0.00
15min,AgWx,beryljct,423,12OCT2018:02:30:00,41.8,12.9,41.2,40.9,40.8,41.0,40.6,93,93,92,0.803,38.9,39.1,38.6,2.499,2.8,43,11,3.9,-0.00015,-0.00018,51.6,54.7,23,0,0,41.0,7.72,0.00,0.00
15min,AgWx,beryljct,423,12OCT2018:02:45:00,41.7,12.89,41.2,40.9,40.9,41.0,40.7,92,93,92,0.802,38.9,39.0,38.7,0.877,1.5,47,6.8,3.2,-0.00019,-0.00026,51.5,54.6,23,0,41,40.2,7.73,0.00,0.00
15min,AgWx,beryljct,423,12OCT2018:03:00:00,41.1,12.89,40.6,39.7,40.3,40.9,39.5,93,93,92,0.771,38.3,38.9,37.4,0,0.2,25,0.7,1.3,-0.00026,-0.00040,51.4,54.5,23,0,100,38.0,7.72,0.00,0.00
15min,AgWx,beryljct,423,12OCT2018:03:15:00,40.3,12.89,40.3,39.6,39.9,40.2,39.5,94,94,93,0.777,38.2,38.5,37.8,0,0.0,25,0.0,0.4,-0.00027,-0.00043,51.3,54.5,23,0,100,37.5,7.73,0.00,0.00
15min,AgWx,beryljct,423,12OCT2018:03:30:00,39.5,12.87,39.3,38.8,39.0,39.7,38.2,94,95,93,0.750,37.5,38.2,36.4,0.57,0.3,73,31,1.2,-0.00025,-0.00038,51.2,54.4,23,0,100,37.0,7.73,0.00,0.00
15min,AgWx,beryljct,423,12OCT2018:03:45:00,38.9,12.88,39.5,39.2,39.0,39.3,38.7,94,94,93,0.759,37.4,37.6,37.0,1.469,0.5,65,17,1.5,-0.00024,-0.00036,51.0,54.3,23,0,100,37.0,7.73,0.00,0.00
15min,AgWx,beryljct,423,12OCT2018:04:00:00,38.4,12.86,39.4,38.5,39.1,39.5,38.3,93,94,92,0.737,37.2,37.8,36.3,0.219,0.6,47,11,2.1,-0.00023,-0.00034,50.9,54.3,23,0,100,36.9,7.73,0.00,0.00
15min,AgWx,beryljct,423,12OCT2018:04:15:00,38.0,12.87,38.6,38.2,38.3,38.7,37.7,94,95,93,0.730,36.7,37.3,35.8,0,0.1,106,3.4,0.8,-0.00026,-0.00040,50.8,54.2,23,0,100,36.0,7.73,0.00,0.00
15min,AgWx,beryljct,423,12OCT2018:04:30:00,37.6,12.87,37.7,37.8,37.3,38.2,36.6,94,95,92,0.729,35.8,36.5,34.6,0,0.2,115,0.2,1.4,-0.00025,-0.00038,50.6,54.1,23,0,100,35.4,7.73,0.00,0.00
15min,AgWx,beryljct,423,12OCT2018:04:45:00,37.2,12.86,37.9,37.4,37.5,38.0,37.2,94,95,94,0.716,36.1,36.6,35.6,0.68,0.1,113,6.5,0.7,-0.00026,-0.00041,50.4,54.1,23,0,100,35.6,7.73,0.00,0.00
15min,AgWx,beryljct,423,12OCT2018:05:00:00,37.0,12.86,38.5,38.5,37.9,38.6,36.5,95,95,93,0.743,36.5,37.2,34.8,0.943,1.1,113,35,3.0,-0.00020,-0.00028,50.3,54.0,23,0,100,36.5,7.73,0.00,0.00
15min,AgWx,beryljct,423,12OCT2018:05:15:00,37.4,12.85,39.2,38.7,38.7,38.9,38.4,93,94,93,0.739,36.9,37.1,36.7,0.767,1.3,72,6.1,2.3,-0.00020,-0.00027,50.1,53.9,23,0,100,37.3,7.73,0.00,0.00
15min,AgWx,beryljct,423,12OCT2018:05:30:00,37.4,12.85,38.7,38.1,38.4,38.7,38.1,93,93,93,0.725,36.5,36.8,36.3,0.723,1.5,51,9.8,2.3,-0.00019,-0.00025,49.9,53.9,23,0,100,36.9,7.73,0.00,0.00
15min,AgWx,beryljct,423,12OCT2018:05:45:00,37.2,12.85,38.1,37.7,37.8,38.1,37.5,94,94,93,0.720,36.1,36.4,35.8,0,0.1,41,0.4,0.7,-0.00026,-0.00040,49.8,53.8,23,0,100,35.5,7.73,0.00,0.00
15min,AgWx,beryljct,423,12OCT2018:06:00:00,36.8,12.85,37.8,37.4,37.4,37.7,37.2,94,95,94,0.716,36.0,36.3,35.7,0.329,0.1,54,1.0,0.7,-0.00025,-0.00039,49.6,53.7,23,0,100,35.8,7.72,0.00,0.00
15min,AgWx,beryljct,423,12OCT2018:06:15:00,36.8,12.84,38.3,37.9,37.8,38.2,37.4,95,95,94,0.727,36.4,36.9,36.0,1.622,2.0,6.7,17,3.1,-0.00017,-0.00022,49.5,53.7,23,0,100,36.8,7.73,0.00,0.00
15min,AgWx,beryljct,423,12OCT2018:06:30:00,36.9,12.85,38.0,36.5,37.7,38.1,36.5,94,95,93,0.682,36.1,36.6,34.8,2.872,2.1,7.0,22,3.0,-0.00017,-0.00022,49.3,53.6,23,0,100,36.5,7.72,0.00,0.00
15min,AgWx,beryljct,423,12OCT2018:06:45:00,36.5,12.84,35.3,34.2,35.2,36.4,34.2,94,95,93,0.634,33.7,34.8,32.6,3.069,2.9,322,8.9,3.5,-0.00014,-0.00017,49.1,53.3,23,0,100,35.6,7.73,0.00,0.00
15min,AgWx,beryljct,423,12OCT2018:07:00:00,35.9,12.82,33.5,32.4,33.3,34.2,32.3,95,96,95,0.594,32.1,33.0,31.2,4.538,3.3,327,10,4.5,0.00003,0.00005,49.0,53.2,23,0,100,35.3,7.73,0.00,0.00
15min,AgWx,beryljct,423,12OCT2018:07:15:00,35.4,12.82,33.8,34.4,33.2,34.5,32.4,97,97,96,0.653,32.4,33.7,31.3,2.587,4.3,318,12,5.9,0.00003,0.00004,48.9,53.4,23,0,100,35.7,7.73,0.00,0.00
15min,AgWx,beryljct,423,12OCT2018:07:30:00,35.5,12.82,34.6,33.7,34.2,35.3,33.6,97,97,97,0.637,33.5,34.6,32.8,2.499,2.9,333,16,4.4,0.00002,0.00003,48.7,53.1,23,0,100,35.3,7.73,0.00,0.00
15min,AgWx,beryljct,423,12OCT2018:07:45:00,35.6,12.82,35.1,34.9,34.6,35.2,33.8,98,98,97,0.671,34.0,34.6,33.1,2.455,2.3,341,11,3.1,0.00002,0.00003,48.6,53.2,23,2,100,35.7,7.73,0.00,0.00
15min,AgWx,beryljct,423,12OCT2018:08:00:00,35.9,12.84,35.0,34.5,34.6,35.2,34.2,98,98,98,0.660,34.1,34.6,33.7,1.513,1.8,342,9.7,3.9,0.00005,0.00006,48.4,53.1,23,8,100,36.0,7.73,0.00,0.00
15min,AgWx,beryljct,423,12OCT2018:08:15:00,36.0,12.87,34.3,33.6,34.0,34.6,33.6,98,98,98,0.639,33.5,34.0,33.1,0,1.0,346,0.6,2.2,0.00012,0.00013,48.3,53.1,23,25,100,35.8,7.73,0.00,0.00
15min,AgWx,beryljct,423,12OCT2018:08:30:00,36.0,13.03,34.2,34.4,33.7,34.4,33.5,98,98,98,0.658,33.2,33.9,33.0,1.798,1.0,256,2.3,1.9,0.00033,0.00035,48.2,53.0,23,76,70,37.5,7.73,0.00,0.00
15min,AgWx,beryljct,423,12OCT2018:08:45:00,36.5,13.27,36.0,36.4,35.5,36.6,34.4,98,98,98,0.714,35.0,36.2,33.9,0,0.7,264,38,2.0,0.00053,0.00057,48.0,52.9,23,136,0,44.1,7.73,0.00,0.00
15min,AgWx,beryljct,423,12OCT2018:09:00:00,37.8,13.7,37.3,37.5,37.0,37.5,36.4,98,98,98,0.745,36.5,37.0,35.9,3.88,2.6,334,23,4.3,0.00067,0.00072,48.0,52.8,23,183,0,48.1,7.73,0.00,0.00
15min,AgWx,beryljct,423,12OCT2018:09:15:00,39.2,14.43,38.0,37.6,37.7,38.1,37.5,98,98,98,0.750,37.2,37.6,37.0,2.258,3.1,9.2,16,5.1,0.00085,0.00091,47.9,52.7,23,234,0,49.5,7.72,0.00,0.00
15min,AgWx,beryljct,423,12OCT2018:09:30:00,40.7,14.59,38.8,39.2,38.5,39.4,37.6,98,98,98,0.797,38.0,38.9,37.1,4.143,3.2,25,13,4.8,0.00106,0.00113,47.8,52.7,23,289,0,53.4,7.73,0.00,0.00
15min,AgWx,beryljct,423,12OCT2018:09:45:00,42.5,14.58,40.2,40.9,39.9,41.3,39.0,98,98,98,0.851,39.4,40.8,38.5,7.651,4.2,45,13,7.8,0.00125,0.00133,47.8,52.6,23,341,0,56.6,7.72,0.00,0.00
15min,AgWx,beryljct,423,12OCT2018:10:00:00,44.1,14.54,41.8,42.1,41.7,42.5,40.6,98,98,98,0.890,41.1,42.0,40.1,9.73,8.4,52,10,13.2,0.00106,0.00115,47.7,52.5,23,313,0,53.4,7.72,0.00,0.00
15min,AgWx,beryljct,423,12OCT2018:10:15:00,45.6,14.53,42.7,43.2,42.6,43.3,42.0,98,98,97,0.923,42.0,42.5,41.5,9.76,10.4,53,8.7,14.1,0.00140,0.00150,47.8,52.5,23,439,0,56.1,7.72,0.00,0.00
15min,AgWx,beryljct,423,12OCT2018:10:30:00,47.1,14.49,43.5,43.5,43.7,44.2,43.2,97,97,96,0.924,42.9,43.5,42.4,11.4,10.0,53,9.7,13.2,0.00162,0.00175,47.9,52.4,23,486,0,58.0,7.72,0.00,0.00
15min,AgWx,beryljct,423,12OCT2018:10:45:00,48.7,14.45,43.6,45.6,44.7,45.9,43.4,91,96,83,0.868,42.3,43.7,40.6,8.18,10.0,55,11,13.2,0.00200,0.00222,48.0,52.3,23,563,0,60.2,7.72,0.00,0.00
15min,AgWx,beryljct,423,12OCT2018:11:00:00,49.9,14.44,46.4,46.2,46.2,46.6,45.5,81,85,77,0.825,40.7,41.6,39.3,7.629,8.7,46,12,13.0,0.00192,0.00223,48.1,52.3,23,449,0,59.6,7.72,0.00,0.00
15min,AgWx,beryljct,423,12OCT2018:11:15:00,50.6,14.43,47.5,48.1,47.1,48.7,46.0,77,80,72,0.857,40.3,42.1,39.3,9.69,9.8,37,10,13.6,0.00226,0.00267,48.3,52.2,23,534,0,59.6,7.72,0.00,0.00
15min,AgWx,beryljct,423,12OCT2018:11:30:00,52.0,14.39,49.1,49.3,48.8,49.4,48.2,73,77,70,0.861,40.6,41.9,39.0,11.86,11.0,52,12,15.8,0.00293,0.00346,48.5,52.2,23,692,0,64.8,7.72,0.00,0.00
15min,AgWx,beryljct,423,12OCT2018:11:45:00,53.0,14.39,49.4,48.9,49.2,50.0,48.6,71,75,68,0.806,40.2,41.9,39.0,10.24,11.5,50,11,15.2,0.00293,0.00351,48.8,52.2,23,674,0,63.4,7.72,0.00,0.00
15min,AgWx,beryljct,423,12OCT2018:12:00:00,53.7,13.95,50.0,50.1,49.8,50.7,48.9,70,73,68,0.831,40.5,42.4,39.2,14.86,11.8,63,12,17.0,0.00302,0.00363,49.1,52.1,23,687,0,63.4,7.72,0.00,0.00
15min,AgWx,beryljct,423,12OCT2018:12:15:00,54.4,14.04,50.6,50.4,50.4,50.9,49.8,69,73,67,0.850,40.8,42.4,39.4,8.22,11.3,59,10,15.6,0.00313,0.00375,49.4,52.1,23,697,0,63.8,7.72,0.00,0.00
15min,AgWx,beryljct,423,12OCT2018:12:30:00,55.1,13.95,51.3,51.4,51.0,51.6,50.2,68,71,64,0.870,40.7,42.2,39.6,8.29,12.2,53,12,17.2,0.00326,0.00393,49.8,52.1,23,721,0,64.2,7.72,0.00,0.00
15min,AgWx,beryljct,423,12OCT2018:12:45:00,55.7,13.97,51.9,52.1,51.7,52.3,51.3,64,69,60,0.845,40.0,41.9,38.6,10.59,11.8,58,13,17.2,0.00331,0.00404,50.2,52.1,23,698,0,64.2,7.72,0.00,0.00
15min,AgWx,beryljct,423,12OCT2018:13:00:00,56.2,13.92,52.2,52.2,52.0,52.4,51.6,63,65,59,0.810,39.7,40.9,38.1,10.22,12.3,59,11,16.7,0.00348,0.00426,50.6,52.2,23,735,0,64.3,7.71,0.00,0.00
15min,AgWx,beryljct,423,12OCT2018:13:15:00,56.4,13.93,52.6,52.6,52.4,53.0,52.0,63,66,60,0.823,40.1,41.8,38.8,9.8,11.8,68,16,16.0,0.00352,0.00430,51.0,52.2,23,735,0,64.5,7.71,0.00,0.00
15min,AgWx,beryljct,423,12OCT2018:13:30:00,56.9,13.9,53.1,53.2,53.0,53.6,52.2,60,64,57,0.786,39.5,41.3,38.2,17.34,11.2,62,12,19.3,0.00363,0.00443,51.4,52.3,23,736,0,65.1,7.71,0.00,0.00
15min,AgWx,beryljct,423,12OCT2018:13:45:00,57.4,13.89,53.9,53.8,53.7,54.6,53.0,57,61,53,0.787,38.9,40.9,36.9,9.38,10.9,55,16,16.4,0.00373,0.00459,51.8,52.3,23,734,0,65.0,7.71,0.00,0.00
15min,AgWx,beryljct,423,12OCT2018:14:00:00,58.1,13.89,54.3,54.7,54.1,54.8,53.6,56,60,52,0.843,38.6,41.2,37.0,7.738,10.6,64,14,14.1,0.00376,0.00464,52.2,52.4,23,728,0,65.2,7.70,0.00,0.00
15min,AgWx,beryljct,423,12OCT2018:14:15:00,58.7,13.96,54.5,54.5,54.5,55.3,53.8,52,59,47,0.735,37.2,40.7,34.6,9.78,10.6,58,12,14.4,0.00381,0.00475,52.7,52.4,23,718,0,64.9,7.70,0.00,0.00
15min,AgWx,beryljct,423,12OCT2018:14:30:00,59.4,13.84,55.1,55.0,54.9,55.6,54.3,51,56,46,0.738,37.0,39.7,34.5,9.73,9.7,55,14,13.9,0.00380,0.00472,53.1,52.5,23,704,0,65.0,7.70,0.00,0.00
15min,AgWx,beryljct,423,12OCT2018:14:45:00,60.0,13.84,55.7,55.9,55.4,55.9,54.8,50,53,46,0.794,37.4,39.1,34.8,6.862,9.3,50,16,13.2,0.00374,0.00465,53.6,52.6,23,683,0,65.0,7.70,0.00,0.00
15min,AgWx,beryljct,423,12OCT2018:15:00:00,60.8,13.8,56.4,56.7,56.2,56.7,55.3,47,52,43,0.766,36.0,38.9,33.8,10.37,8.6,46,18,12.6,0.00375,0.00468,54.0,52.7,23,662,0,65.1,7.69,0.00,0.00
15min,AgWx,beryljct,423,12OCT2018:15:15:00,61.5,13.79,56.9,57.1,56.7,57.2,56.2,47,51,42,0.752,37.0,38.7,34.3,10.61,9.5,60,17,13.8,0.00359,0.00455,54.3,52.8,23,621,0,64.5,7.69,0.00,0.00
15min,AgWx,beryljct,423,12OCT2018:15:30:00,62.0,13.8,57.2,56.7,57.1,57.9,56.5,46,50,41,0.680,36.6,38.7,33.1,6.467,9.2,58,19,12.6,0.00344,0.00440,54.6,52.9,23,585,0,63.7,7.69,0.00,0.00
15min,AgWx,beryljct,423,12OCT2018:15:45:00,62.4,13.76,57.4,57.5,57.3,57.8,56.9,43,46,39,0.693,34.8,36.9,32.7,6.971,9.3,57,20,15.5,0.00348,0.00450,54.8,53.1,23,577,0,63.1,7.69,0.00,0.00
15min,AgWx,beryljct,423,12OCT2018:16:00:00,62.7,13.75,57.6,57.6,57.6,58.0,57.3,42,45,39,0.711,34.5,36.8,32.5,7.629,8.2,57,17,11.6,0.00321,0.00416,54.9,53.2,23,526,0,62.9,7.69,0.00,0.00
15min,AgWx,beryljct,423,12OCT2018:16:15:00,63.0,13.75,57.9,57.9,57.8,58.2,57.3,40,44,36,0.613,33.6,35.9,31.4,10.19,8.8,60,14,12.5,0.00317,0.00418,54.9,53.3,23,504,0,61.9,7.69,0.00,0.00
15min,AgWx,beryljct,423,12OCT2018:16:30:00,63.2,13.75,58.0,57.9,57.9,58.1,57.6,38,40,36,0.652,32.8,34.1,31.2,8.31,9.5,49,18,13.2,0.00304,0.00412,55.0,53.4,23,465,0,61.1,7.68,0.00,0.00
15min,AgWx,beryljct,423,12OCT2018:16:45:00,63.3,13.74,58.2,58.3,58.1,58.4,57.7,39,41,36,0.642,33.1,34.9,31.2,8.33,8.4,63,12,12.6,0.00276,0.00374,55.1,53.5,23,422,0,60.8,7.68,0.00,0.00
15min,AgWx,beryljct,423,12OCT2018:17:00:00,63.3,13.72,58.3,58.1,58.2,58.5,57.8,39,42,36,0.673,33.1,35.2,31.6,7.87,7.8,63,11,11.2,0.00249,0.00343,55.1,53.6,23,377,0,60.6,7.68,0.00,0.00
15min,AgWx,beryljct,423,12OCT2018:17:15:00,63.2,13.73,58.3,58.2,58.1,58.3,57.9,39,41,36,0.626,33.2,34.8,31.5,5.678,7.8,57,14,11.3,0.00224,0.00315,55.2,53.7,23,330,0,60.1,7.68,0.00,0.00
15min,AgWx,beryljct,423,12OCT2018:17:30:00,63.0,13.73,58.2,57.8,58.1,58.5,57.8,41,45,37,0.717,34.4,36.5,32.0,9.36,8.0,60,8.4,11.9,0.00198,0.00287,55.3,53.8,23,283,0,60.6,7.68,0.00,0.00
15min,AgWx,beryljct,423,12OCT2018:17:45:00,62.6,13.75,57.9,57.9,57.8,57.9,57.6,44,46,41,0.731,35.8,37.1,34.3,6.138,8.3,69,10,11.8,0.00171,0.00256,55.4,53.9,23,235,0,59.5,7.68,0.00,0.00
15min,AgWx,beryljct,423,12OCT2018:18:00:00,62.0,13.79,57.9,57.5,57.7,58.0,57.5,45,47,42,0.727,36.5,37.9,34.9,8.29,7.3,67,12,9.9,0.00135,0.00209,55.5,54.0,23,188,0,59.5,7.68,0.00,0.00
15min,AgWx,beryljct,423,12OCT2018:18:15:00,61.4,13.8,57.5,57.0,57.3,57.5,56.9,45,49,42,0.775,36.2,38.0,34.5,6.489,7.2,66,8.1,10.0,0.00064,0.00082,55.6,54.0,23,143,0,58.9,7.69,0.00,0.00
15min,AgWx,beryljct,423,12OCT2018:18:30:00,60.5,13.82,56.7,56.0,56.6,57.0,56.0,49,53,47,0.805,37.9,39.1,36.9,5.765,6.3,68,7.5,8.3,0.00048,0.00063,55.7,54.1,23,101,0,57.0,7.69,0.00,0.00
15min,AgWx,beryljct,423,12OCT2018:18:45:00,59.2,13.36,55.5,54.8,55.5,56.0,54.8,53,55,52,0.808,38.7,39.6,38.1,4.845,4.9,61,5.8,6.4,0.00028,0.00039,55.7,54.2,23,56,0,54.8,7.69,0.00,0.00
15min,AgWx,beryljct,423,12OCT2018:19:00:00,57.4,13.25,53.9,53.0,53.9,54.7,53.0,56,58,54,0.788,38.6,39.0,38.1,4.823,4.2,60,6.6,5.7,0.00012,0.00018,55.8,54.3,23,10,0,52.1,7.69,0.00,0.00
15min,AgWx,beryljct,423,12OCT2018:19:15:00,55.2,13.18,52.3,51.5,52.2,53.1,51.5,59,60,57,0.768,38.3,38.8,37.7,2.433,2.2,43,8.1,4.1,-0.00007,-0.00007,55.7,54.4,23,3,0,49.3,7.70,0.01,0.00
15min,AgWx,beryljct,423,12OCT2018:19:30:00,53.2,13.16,50.5,49.8,50.5,51.5,49.8,61,62,59,0.746,37.5,38.1,37.0,2.521,2.4,33,6.7,3.3,-0.00007,-0.00007,55.7,54.4,23,0,0,47.6,7.70,0.00,0.00
15min,AgWx,beryljct,423,12OCT2018:19:45:00,51.6,13.15,50.5,50.4,50.2,50.4,49.6,59,62,56,0.696,36.3,37.1,35.3,8,5.1,50,8.3,8.2,0.00011,0.00017,55.6,54.5,23,0,0,47.9,7.70,0.00,0.00
15min,AgWx,beryljct,423,12OCT2018:20:00:00,50.8,13.14,50.0,49.1,49.8,50.5,49.1,58,60,55,0.701,35.5,35.8,35.1,5.568,6.0,64,6.9,8.2,0.00016,0.00023,55.5,54.6,23,0,0,48.0,7.70,0.00,0.00
15min,AgWx,beryljct,423,12OCT2018:20:15:00,50.0,13.13,48.9,48.1,48.7,49.1,48.1,60,62,59,0.706,35.5,35.8,35.2,3.858,5.7,64,6.4,9.2,0.00013,0.00019,55.3,54.6,23,0,0,46.9,7.71,0.00,0.00
15min,AgWx,beryljct,423,12OCT2018:20:30:00,49.1,13.11,48.1,47.5,47.9,48.2,47.5,62,64,61,0.713,35.7,36.0,35.4,3.486,4.7,70,6.6,6.5,0.00006,0.00011,55.1,54.7,23,0,0,45.9,7.71,0.00,0.00
15min,AgWx,beryljct,423,12OCT2018:20:45:00,48.4,13.11,47.6,47.3,47.4,47.6,47.2,64,65,63,0.717,35.9,36.1,35.7,4.034,4.6,83,7.3,6.4,0.00005,0.00009,55.0,54.7,23,0,0,45.3,7.71,0.00,0.00
15min,AgWx,beryljct,423,12OCT2018:21:00:00,47.8,13.08,47.3,46.9,47.0,47.3,46.8,65,66,64,0.711,36.0,36.2,35.8,5.437,5.0,81,6.2,7.1,0.00006,0.00010,54.8,54.7,23,0,0,45.2,7.71,0.00,0.00
15min,AgWx,beryljct,423,12OCT2018:21:15:00,47.3,13.1,46.9,46.4,46.6,46.9,46.4,66,67,65,0.705,35.8,36.0,35.5,3.617,4.5,83,6.5,6.6,0.00004,0.00007,54.6,54.7,23,0,0,44.6,7.71,0.00,0.00
15min,AgWx,beryljct,423,12OCT2018:21:30:00,46.8,13.09,46.6,46.1,46.3,46.5,46.0,65,66,64,0.675,35.0,35.6,34.5,3.661,4.1,82,6.4,6.0,0.00002,0.00005,54.4,54.8,23,0,0,44.2,7.71,0.00,0.00
15min,AgWx,beryljct,423,12OCT2018:21:45:00,46.4,13.07,46.4,46.0,46.1,46.3,46.0,63,64,63,0.670,34.3,34.6,34.2,4.998,4.6,87,7.2,7.1,0.00005,0.00009,54.2,54.8,23,0,0,44.0,7.71,0.00,0.00
15min,AgWx,beryljct,423,12OCT2018:22:00:00,46.1,13.07,46.3,45.9,45.9,46.1,45.8,64,64,63,0.676,34.4,34.5,34.2,7.125,6.0,86,6.2,7.9,0.00010,0.00015,54.0,54.8,23,0,0,44.2,7.72,0.00,0.00
15min,AgWx,beryljct,423,12OCT2018:22:15:00,46.0,13.07,46.0,45.6,45.7,45.9,45.5,65,66,64,0.680,34.5,34.8,34.4,6.335,6.5,83,8.0,8.6,0.00011,0.00016,53.8,54.7,23,0,0,44.2,7.72,0.00,0.00
15min,AgWx,beryljct,423,12OCT2018:22:30:00,45.8,13.06,45.4,44.6,45.2,45.7,44.6,67,69,65,0.696,35.0,35.3,34.7,4.56,5.0,70,5.0,7.3,0.00004,0.00008,53.6,54.7,23,0,0,43.6,7.72,0.00,0.00
15min,AgWx,beryljct,423,12OCT2018:22:45:00,45.2,13.04,44.7,44.0,44.4,44.7,44.0,70,71,69,0.696,35.3,35.4,35.2,4.077,4.9,71,5.1,6.6,0.00002,0.00005,53.4,54.7,23,0,0,42.7,7.72,0.00,0.00
15min,AgWx,beryljct,423,12OCT2018:23:00:00,44.7,13.02,44.5,44.4,44.1,44.5,43.8,71,72,70,0.696,35.3,35.4,35.2,2.894,3.6,85,8.7,5.1,-0.00004,-0.00003,53.2,54.7,23,0,0,42.0,7.72,0.00,0.00
15min,AgWx,beryljct,423,12OCT2018:23:15:00,44.0,13.04,43.6,43.1,43.5,44.4,42.9,72,74,70,0.684,35.1,35.4,34.8,0,0.7,79,7.5,3.2,-0.00022,-0.00032,53.0,54.6,23,0,0,40.5,7.72,0.00,0.00
15min,AgWx,beryljct,423,12OCT2018:23:30:00,43.2,13.03,43.7,43.1,43.3,43.6,43.1,72,73,71,0.687,34.9,35.1,34.7,0.46,0.6,89,0.4,1.8,-0.00024,-0.00035,52.8,54.6,23,0,0,39.4,7.72,0.00,0.00
15min,AgWx,beryljct,423,12OCT2018:23:45:00,42.5,13.02,43.2,42.1,43.0,44.1,42.0,72,74,69,0.664,34.5,34.9,33.4,0,0.7,92,5.1,2.1,-0.00022,-0.00032,52.6,54.6,23,0,0,39.5,7.72,0.00,0.00
15min,AgWx,beryljct,423,13OCT2018:00:00:00,41.8,13.02,40.9,37.1,41.1,43.2,37.0,75,82,71,0.616,33.8,34.9,31.9,3.047,2.3,61,84,5.2,-0.00011,-0.00013,52.4,54.5,23,0,0,38.5,7.72,0.00,0.00
15min,AgWx,beryljct,423,13OCT2018:00:15:00,40.9,13,39.3,38.9,38.8,40.4,37.3,81,84,76,0.642,33.4,34.7,32.1,2.938,1.7,316,19,3.4,-0.00015,-0.00020,52.2,54.5,23,0,0,36.9,7.73,0.00,0.00
15min,AgWx,beryljct,423,13OCT2018:00:30:00,40.1,12.99,39.3,38.4,38.9,39.5,38.0,81,83,79,0.653,33.6,34.5,32.8,3.157,2.9,316,5.5,3.4,-0.00010,-0.00012,52.0,54.4,23,0,0,36.9,7.72,0.00,0.00
15min,AgWx,bigpiney,439,12OCT2018:00:00:00,25.4,12.66,26.7,25.3,26.4,28.1,25.3,74,76,70,0.352,19.2,20.7,18.2,4.143,3.4,255,15,5.4,0.00002,0.00004,40.8,44.1,30,0,0,0.0,.,0.00,0.00
15min,AgWx,bigpiney,439,12OCT2018:00:15:00,25.6,12.64,23.9,23.1,23.9,25.6,21.7,77,81,73,0.344,17.8,19.7,15.7,1.25,1.9,237,65,4.0,-0.00002,-0.00002,40.8,44.0,30,0,0,0.0,.,0.00,0.00
15min,AgWx,bigpiney,439,12OCT2018:00:30:00,25.3,12.63,22.9,24.6,22.4,24.6,21.1,81,84,77,0.372,17.3,20.0,15.1,2.587,2.3,184,7.8,3.2,-0.00001,-0.00001,40.7,44.0,30,0,0,0.0,.,0.00,0.00
15min,AgWx,bigpiney,439,12OCT2018:00:45:00,25.0,12.63,26.6,26.5,26.2,26.8,24.9,75,82,72,0.354,19.3,20.7,18.4,4.735,3.6,201,12,4.8,0.00002,0.00004,40.7,44.0,30,0,0,0.0,.,0.00,0.00
15min,AgWx,bigpiney,439,12OCT2018:01:00:00,25.1,12.62,25.4,23.5,25.4,26.4,23.5,74,77,71,0.325,18.3,19.3,16.9,5.787,4.1,232,9.0,5.8,0.00004,0.00005,40.7,44.0,30,0,0,0.0,.,0.00,0.00
15min,AgWx,bigpiney,439,12OCT2018:01:15:00,24.8,12.62,21.7,20.9,21.7,23.3,20.3,80,83,76,0.320,16.6,18.2,15.5,5.744,5.1,218,15,6.3,0.00002,0.00004,40.7,44.0,30,0,0,0.0,.,0.00,0.00
15min,AgWx,bigpiney,439,12OCT2018:01:30:00,24.4,12.62,23.6,24.6,22.7,25.6,20.9,81,83,75,0.339,17.8,19.6,16.4,2.609,5.1,226,9.1,6.6,0.00002,0.00004,40.6,44.0,30,0,0,0.0,.,0.00,0.00
15min,AgWx,bigpiney,439,12OCT2018:01:45:00,24.2,12.58,22.6,21.7,22.6,24.4,21.3,81,85,75,0.322,17.6,18.8,16.0,5.502,3.4,240,25,6.1,0.00000,0.00001,40.6,44.0,30,0,0,0.0,.,0.00,0.00
15min,AgWx,bigpiney,439,12OCT2018:02:00:00,24.0,12.6,23.3,23.1,22.9,24.6,21.0,81,85,77,0.351,17.8,19.6,16.0,3.617,4.9,217,7.7,7.1,0.00002,0.00003,40.6,44.0,30,0,0,0.0,.,0.00,0.00
15min,AgWx,bigpiney,439,12OCT2018:02:15:00,23.8,12.59,23.8,24.7,23.2,24.7,21.3,82,84,80,0.368,18.4,19.8,16.3,2.762,3.0,273,31,5.2,-0.00000,0.00000,40.6,44.0,30,0,0,0.0,.,0.00,0.00
15min,AgWx,bigpiney,439,12OCT2018:02:30:00,23.7,12.56,24.0,19.8,24.0,24.8,19.8,82,83,76,0.290,19.2,20.2,13.8,2.762,3.3,307,36,3.9,-0.00000,0.00001,40.5,44.0,30,0,0,0.0,.,0.00,0.00
15min,AgWx,bigpiney,439,12OCT2018:02:45:00,23.5,12.57,20.0,20.0,19.8,20.6,18.9,84,87,80,0.310,15.9,17.3,14.8,3.201,4.1,187,6.8,6.1,0.00000,0.00001,40.5,43.9,30,0,0,0.0,.,0.00,0.00
15min,AgWx,bigpiney,439,12OCT2018:03:00:00,23.0,12.55,20.7,22.5,20.0,22.8,19.2,85,87,82,0.343,16.1,18.9,14.6,5.722,5.2,195,8.9,6.5,0.00001,0.00002,40.5,43.9,30,0,0,0.0,.,0.00,0.00
15min,AgWx,bigpiney,439,12OCT2018:03:15:00,22.8,12.55,23.2,23.3,22.7,24.2,20.9,82,85,77,0.341,17.9,19.2,15.6,3.793,4.1,229,11,6.3,0.00001,0.00002,40.4,43.9,30,0,0,0.0,.,0.00,0.00
15min,AgWx,bigpiney,439,12OCT2018:03:30:00,22.8,12.55,27.7,26.3,26.8,29.2,23.6,74,82,67,0.366,19.7,21.2,16.4,3.529,2.6,279,23,5.0,0.00001,0.00002,40.4,43.9,30,0,0,0.0,.,0.00,0.00
15min,AgWx,bigpiney,439,12OCT2018:03:45:00,22.9,12.55,29.2,30.0,28.4,30.3,24.1,72,80,68,0.388,20.4,21.5,16.6,3.288,3.5,283,16,5.0,0.00004,0.00005,40.4,43.9,30,0,0,0.0,.,0.00,0.00
15min,AgWx,bigpiney,439,12OCT2018:04:00:00,23.5,12.54,29.3,26.1,29.4,30.7,26.1,69,74,67,0.357,20.4,21.1,18.6,4.889,4.7,314,15,6.3,0.00007,0.00010,40.4,43.9,30,0,0,0.0,.,0.00,0.00
15min,AgWx,bigpiney,439,12OCT2018:04:15:00,24.0,12.53,25.0,22.6,25.1,26.8,22.6,76,79,73,0.325,18.7,19.9,16.3,2.718,3.9,309,48,6.2,0.00003,0.00004,40.3,43.9,30,0,0,0.0,.,0.00,0.00
15min,AgWx,bigpiney,439,12OCT2018:04:30:00,24.1,12.53,23.8,24.4,23.3,25.7,20.3,78,84,74,0.363,17.6,19.9,14.5,0.241,1.8,162,31,5.6,-0.00002,-0.00002,40.3,43.9,30,0,0,0.0,.,0.00,0.00
15min,AgWx,bigpiney,439,12OCT2018:04:45:00,23.7,12.5,21.3,19.7,21.4,24.9,19.6,79,83,73,0.301,16.0,19.5,14.1,6.094,4.6,226,12,7.2,0.00002,0.00003,40.3,43.9,30,0,0,0.0,.,0.00,0.00
15min,AgWx,bigpiney,439,12OCT2018:05:00:00,23.2,12.5,21.2,20.5,20.8,21.9,19.8,82,84,80,0.313,16.3,17.6,15.3,3.814,5.2,241,5.4,8.1,0.00002,0.00003,40.2,43.9,30,0,0,0.0,.,0.00,0.00
15min,AgWx,bigpiney,439,12OCT2018:05:15:00,22.8,12.5,22.0,23.7,21.3,23.9,19.8,82,86,77,0.338,16.6,19.0,15.2,3.354,3.8,241,23,7.3,0.00001,0.00001,40.2,43.9,30,0,0,0.0,.,0.00,0.00
15min,AgWx,bigpiney,439,12OCT2018:05:30:00,22.6,12.48,19.7,17.5,20.0,23.6,17.5,81,83,76,0.278,15.0,17.7,13.2,5.568,4.1,225,12,7.3,0.00001,0.00002,40.2,43.9,30,0,0,0.0,.,0.00,0.00
15min,AgWx,bigpiney,439,12OCT2018:05:45:00,22.1,12.47,17.9,17.8,17.5,17.8,17.1,85,87,83,0.292,13.9,14.5,13.2,5.722,4.8,218,7.4,6.4,0.00001,0.00001,40.2,43.8,30,0,0,0.0,.,0.00,0.00
15min,AgWx,bigpiney,439,12OCT2018:06:00:00,21.5,12.48,17.9,17.5,17.5,17.8,17.2,86,87,85,0.285,14.0,14.5,13.6,6.27,5.0,220,8.1,6.8,0.00001,0.00001,40.1,43.8,30,0,0,0.0,.,0.00,0.00
15min,AgWx,bigpiney,439,12OCT2018:06:15:00,21.1,12.45,19.4,20.6,18.6,20.6,17.5,85,87,82,0.327,14.9,17.1,13.9,6.007,5.4,225,9.4,7.0,0.00001,0.00002,40.1,43.9,30,0,0,0.0,.,0.00,0.00
15min,AgWx,bigpiney,439,12OCT2018:06:30:00,21.0,12.45,22.3,19.5,21.9,23.9,19.5,80,87,74,0.287,16.7,19.2,13.7,5.546,5.6,234,21,8.1,0.00003,0.00004,40.1,43.8,30,0,0,0.0,.,0.00,0.00
15min,AgWx,bigpiney,439,12OCT2018:06:45:00,21.0,12.46,19.5,19.2,19.2,20.2,18.1,83,86,80,0.305,15.0,15.7,13.5,5.042,4.8,232,11,5.9,0.00001,0.00002,40.1,43.9,30,0,0,0.0,.,0.00,0.00
15min,AgWx,bigpiney,439,12OCT2018:07:00:00,20.9,12.44,20.0,20.0,19.4,23.1,17.0,84,90,78,0.299,15.3,20.2,12.4,6.489,4.0,222,30,7.8,0.00000,0.00001,40.0,43.8,30,0,0,0.0,.,0.00,0.00